Location: Honea-Egypt Observatory
(30.2769°N, 95.5936°W)
Time: 07:34:18
(UTC-06:00)

Envisat - Visible Passes

Search period start: 27 November 2020 00:00
Search period end: 07 December 2020 00:00
Orbit: 764 x 766 km, 98.1° (Epoch: 27 November)

Date Brightness Start Highest point End Pass type
(mag) Time Alt. Az. Time Alt. Az. Time Alt. Az.
27 Nov 5.6 05:15:31 10° NE 05:19:18 21° E 05:23:04 10° SE visible
27 Nov 4.3 18:02:05 10° S 18:06:55 45° W 18:11:47 10° NNW visible
28 Nov 3.0 06:16:33 10° N 06:21:39 82° WNW 06:26:42 10° SSW visible
29 Nov 4.5 05:40:05 10° NNE 05:44:50 39° E 05:49:33 10° SSE visible
29 Nov 5.5 18:28:23 10° SSW 18:32:26 24° W 18:36:30 10° NW visible
30 Nov 6.0 05:04:49 10° ENE 05:07:51 16° E 05:10:52 10° SE visible
30 Nov 3.7 17:50:32 10° S 17:55:31 60° W 18:00:33 10° NNW visible
01 Dec 3.2 06:05:11 10° NNE 06:10:17 76° ESE 06:15:20 10° S visible
01 Dec 6.2 18:55:59 10° WSW 18:58:01 12° W 19:00:04 10° WNW visible
02 Dec 5.0 05:28:59 10° NE 05:33:24 30° E 05:37:49 10° SSE visible
02 Dec 5.0 18:16:32 10° SSW 18:21:00 31° W 18:25:29 10° NW visible
03 Dec 6.2 04:54:36 10° ENE 04:56:22 12° E 04:58:08 10° ESE visible
03 Dec 3.1 06:30:40 10° N 06:35:38 57° WNW 06:40:35 10° SSW visible
03 Dec 3.2 17:39:04 10° S 17:44:08 80° WSW 17:49:13 10° NNW visible
04 Dec 3.7 05:53:53 10° NNE 05:58:53 57° E 06:03:51 10° S visible
04 Dec 6.0 18:43:23 10° SW 18:46:33 17° W 18:49:44 10° NW visible
05 Dec 5.4 05:17:59 10° NE 05:21:58 23° E 05:25:56 10° SSE visible
05 Dec 4.5 18:04:49 10° S 18:09:35 41° W 18:14:21 10° NNW visible
06 Dec 2.9 06:19:12 10° N 06:24:17 75° WNW 06:29:20 10° SSW visible
